Location: Bacharowice
(49.9333°N, 19.5833°E)
Time: 00:37:14
(UTC+00:00)

USA 305 - Pass Details

Date: 27 September 2021
Orbit: 547 x 588 km, 54.0° (Epoch: 03 October)

Event Time Altitude Azimuth Distance (km) Brightness Sun altitude
Rises 18:51:03 0° 295° (WNW) 2,751 7.9 -23.1°
Reaches altitude 10° 18:53:18 10° 291° (WNW) 1,860 6.6 -23.4°
Enters shadow 18:57:19 56° 222° (SW) 680 3.2 -24.0°
